Find Starlink 32471

NORAD ID: 61968 Int'l Des: 2024-210 Owner: SPXS Country: US Constellation: starlink operational
LEOCIRCULAR

リアルタイム位置

3D地球を読み込み中...

Starlink 32471について

説明を読み込み中...

次回通過

Passes for default location (London). Set your location on the main map for personalized predictions.

高度履歴

Loading altitude history...

軌道要素

1 61968U 24210K 26124.59992705 .00026510 00000-0 96861-3 0 9997
2 61968 42.9969 216.9041 0001781 257.9096 102.1556 15.27606300 83550
Epoch: May 4, 2026 • Age: 18 hours

現在のステータス

高度 487.1 km
速度 7.63 km/s
衛星直下点 42.74°N, 31.98°W
打ち上げ日 Nov 14, 2024
運用期間 1.4 years
タイプ internet

技術仕様

分類 Payload
質量 730.00 kg
乾燥質量 700.00 kg
総質量 730.00 kg
長さ 0.30 m
直径 4.10 m
スパン 29.00 m
形状 Box + pan
製造者 SPXS
バスタイプ Starlink V2M
フェーズステータス In Orbit
所有者/国 SPXS/US

Most Searched